Home > Weather > Lichfield > Past weeks

Flag for United Kingdom Weather for the Past 2 Weeks in Lichfield, England, United Kingdom

Now
34 °F

Clear.


Feels Like: 30 °F
Forecast: 33 / 41 °F
Wind: 5 mph from North

Location: Birmingham / Airport

Current Time: Feb 14, 2016 at 4:29:56 AM

Latest Report: Feb 14, 2016 at 3:50 AM


Visibility: 10 mi

Pressure: 29.24 "Hg

Humidity: 100%

Dew point: 34 °F

Location of LichfieldLocation

Historic Weather in Lichfield — Graph

°F

Lichfield Temperature Yesterday

Maximum temperature yesterday: 41 °F (at 12:50 PM)
Minimum temperature yesterday: 36 °F (at 5:50 AM)
Average temperature yesterday: 38 °F

High & Low Weather Summary for the Past Weeks

 TemperatureHumidityPressure
High57 °F (Jan 31, 8:20 PM)100% (Jan 31, 6:20 AM)30.33 "Hg (Jan 31, 6:20 AM)
Low30 °F (Feb 11, 4:50 AM)53% (Feb 2, 12:20 PM)28.82 "Hg (Feb 8, 8:20 AM)
Average43 °F86%29.56 "Hg
* Reported Jan 30 3:20 AM — Feb 14 3:20 AM, Lichfield, Weather by CustomWeather, © 2016

Note: Actual official high and low records may vary slightly from our data, if they occured in-between our weather recording intervals... More about our weather records

Advertising

Lichfield Weather History for the Previous 24 Hours

 ConditionsComfort  
Time TempWeatherWind HumidityBarometerVisibility
3:20 AM
Sun, Feb 14
34 °FClear.5 mph100%29.24 "Hg10 mi
2:50 AM34 °FPassing clouds.5 mph100%29.24 "HgN/A
2:20 AM34 °FPassing clouds.5 mph100%29.24 "HgN/A
1:20 AM36 °FPartly cloudy.7 mph93%29.21 "HgN/A
12:50 AM36 °FPartly cloudy.7 mph93%29.21 "HgN/A
12:20 AM36 °FPartly cloudy.7 mph93%29.21 "HgN/A
11:50 PM
Sat, Feb 13
36 °FPassing clouds.7 mph93%29.21 "HgN/A
11:20 PM36 °FPassing clouds.7 mph93%29.21 "HgN/A
10:50 PM36 °FClear.8 mph93%29.21 "Hg10 mi
10:20 PM36 °FClear.7 mph93%29.21 "Hg10 mi
9:50 PM37 °FPassing clouds.7 mph93%29.21 "HgN/A
8:50 PM37 °FClear.7 mph93%29.18 "Hg10 mi
8:20 PM37 °FPassing clouds.8 mph93%29.18 "HgN/A
7:50 PM37 °FPassing clouds.7 mph93%29.18 "HgN/A
7:20 PM37 °FPartly cloudy.7 mph93%29.18 "HgN/A
6:50 PM37 °FPassing clouds.7 mph93%29.18 "HgN/A
6:20 PM39 °FPassing clouds.8 mph87%29.18 "Hg6 mi
5:50 PM39 °FLight rain. Partly cloudy.6 mph93%29.18 "Hg4 mi
5:20 PM39 °FPartly cloudy.8 mph93%29.15 "Hg3 mi
4:50 PM39 °FDrizzle. Broken clouds.7 mph93%29.15 "Hg3 mi
4:20 PM39 °FDrizzle. Partly sunny.8 mph93%29.15 "Hg3 mi
3:50 PM39 °FDrizzle. Partly sunny.9 mph87%29.12 "Hg4 mi
3:20 PM41 °FDrizzle. Broken clouds.12 mph81%29.12 "Hg6 mi
2:50 PM41 °FBroken clouds.12 mph81%29.12 "HgN/A
2:20 PM41 °FBroken clouds.14 mph81%29.09 "HgN/A
1:50 PM41 °FPartly sunny.13 mph76%29.09 "HgN/A
1:20 PM41 °FBroken clouds.12 mph81%29.09 "HgN/A
12:50 PM41 °FScattered clouds.13 mph76%29.12 "HgN/A
12:20 PM39 °FScattered clouds.13 mph87%29.12 "HgN/A
11:50 AM39 °FPassing clouds.15 mph81%29.12 "Hg6 mi
11:20 AM39 °FPassing clouds.13 mph81%29.12 "Hg6 mi
10:50 AM37 °FScattered clouds.13 mph87%29.12 "Hg6 mi
10:20 AM37 °FScattered clouds.13 mph87%29.12 "Hg6 mi
9:50 AM37 °FScattered clouds.13 mph87%29.12 "Hg6 mi
9:20 AM37 °FPartly sunny.12 mph87%29.12 "Hg6 mi
8:50 AM36 °FPassing clouds.10 mph93%29.12 "Hg6 mi
8:20 AM36 °FClear.12 mph93%29.12 "Hg5 mi
7:50 AM36 °FClear.12 mph93%29.15 "Hg4 mi
7:20 AM36 °FPassing clouds.8 mph93%29.15 "Hg4 mi
6:50 AM36 °FClear.12 mph93%29.15 "Hg5 mi
6:20 AM36 °FClear.9 mph93%29.18 "Hg4 mi
5:50 AM36 °FClear.9 mph93%29.18 "Hg10 mi
5:20 AM37 °FClear.9 mph93%29.21 "Hg10 mi
4:50 AM37 °FPassing clouds.9 mph93%29.21 "Hg5 mi
4:20 AM37 °FPassing clouds.9 mph93%29.21 "Hg5 mi
Weather by CustomWeather, © 2016

See weather overviewHow to use our weather pages